Overview Statistics Trail Chart Weather Telemetry Raw packets
 

This is the latest recevied weather packets stored in our database for station/object PU2XNA. If no packets are shown the sender has not sent any weather packets the latest 10 day(s).

<< 8 9 10 11 12 13 14 >>
Time Temp. Humidity Pressure Rain* Wind** Luminosity Snow
1788446704 26.11° C 72% 1014.5 hPa - - - -
1788445803 26.11° C 72% 1014.7 hPa - - - -
1788444902 25.56° C 72% 1015 hPa - - - -
1788444002 25° C 72% 1015.3 hPa - - - -
1788443102 24.44° C 72% 1015.5 hPa - - - -
1788442203 24.44° C 72% 1015.5 hPa - - - -
1788441302 25.56° C 72% 1015.4 hPa - - - -
1788440403 27.22° C 72% 1015.4 hPa - - - -
1788439503 30° C 72% 1015.5 hPa - - - -
1788438603 30° C 72% 1015.5 hPa - - - -
1788437702 29.44° C 72% 1015.5 hPa - - - -
1788436803 29.44° C 72% 1015.5 hPa - - - -
1788435904 28.33° C 72% 1015.5 hPa - - - -
1788435003 28.89° C 72% 1015.6 hPa - - - -
1788434103 30° C 72% 1015.5 hPa - - - -
1788433203 27.78° C 72% 1015.6 hPa - - - -
1788432303 26.67° C 72% 1015.6 hPa - - - -
1788431403 25° C 72% 1015.6 hPa - - - -
1788430503 20.56° C 72% 1015.5 hPa - - - -
1788429603 14.44° C 79% 1015.3 hPa - - - -
1788428703 13.89° C 79% 1015.3 hPa - - - -
1788427802 13.89° C 79% 1015.1 hPa - - - -
1788426902 13.89° C 79% 1014.9 hPa - - - -
1788426004 14.44° C 79% 1014.7 hPa - - - -
1788425103 14.44° C 79% 1014.5 hPa - - - -

* Rain since midnight (hover to see other rain measurements)
** Current wind speed in m/s (hover to see current wind gust speed)